• In Hungary
  • List of Countries
  • For 7 days
  • Water Temperature
  • Satellite Maps
  • Weather Map
  • News
  • Weather Widgets
  • user-avatar
    Login

    Hourly Weather Kadeczka

    Today, 23 October, Tuesday

    Time Temperature Precipitation Wind Pressure Humidity
    00:00 +6°C° 0.1 mm 2 mps 725 mmHg 80%
    01:00 +7°C° 0.1 mm 2 mps 725 mmHg 81%
    02:00 +7°C° 0.1 mm 2 mps 724 mmHg 83%
    03:00 +6°C° 0.1 mm 2 mps 724 mmHg 85%
    04:00 +6°C° 0.1 mm 2 mps 724 mmHg 87%
    05:00 +6°C° 0 mm 2 mps 724 mmHg 88%
    06:00 +5°C° 0 mm 2 mps 723 mmHg 88%
    07:00 +5°C° 0 mm 2 mps 723 mmHg 88%
    08:00 +5°C° 0 mm 3 mps 723 mmHg 80%
    09:00 +7°C° 0 mm 3 mps 722 mmHg 71%
    10:00 +8°C° 0 mm 4 mps 722 mmHg 62%
    11:00 +8°C° 0.1 mm 4 mps 721 mmHg 59%
    12:00 +10°C° 0.1 mm 4 mps 720 mmHg 56%
    13:00 +9°C° 0.1 mm 5 mps 719 mmHg 54%
    14:00 +8°C° 0.2 mm 5 mps 718 mmHg 58%
    15:00 +8°C° 0.2 mm 6 mps 717 mmHg 62%
    16:00 +7°C° 0.2 mm 6 mps 716 mmHg 67%
    17:00 +7°C° 0.2 mm 6 mps 716 mmHg 70%
    18:00 +5°C° 0.2 mm 6 mps 715 mmHg 74%
    19:00 +5°C° 0.2 mm 6 mps 714 mmHg 77%
    20:00 +5°C° 0.3 mm 6 mps 714 mmHg 78%
    21:00 +7°C° 0.3 mm 6 mps 713 mmHg 80%
    22:00 +7°C° 0.3 mm 6 mps 712 mmHg 81%
    23:00 +6°C° 1 mm 7 mps 711 mmHg 82%

    Tomorrow, 24 October, Wednesday

    Time Temperature Precipitation Wind Pressure Humidity
    00:00 +6°C° 1 mm 7 mps 710 mmHg 83%
    01:00 +8°C° 1 mm 7 mps 709 mmHg 85%
    02:00 +8°C° 1.2 mm 7 mps 709 mmHg 85%
    03:00 +7°C° 1.2 mm 8 mps 708 mmHg 85%
    04:00 +7°C° 1.2 mm 8 mps 707 mmHg 85%
    05:00 +6°C° 1.8 mm 8 mps 707 mmHg 82%
    06:00 +5°C° 1.8 mm 8 mps 707 mmHg 80%
    07:00 +4°C° 1.8 mm 8 mps 707 mmHg 77%
    08:00 +2°C° 0.4 mm 8 mps 708 mmHg 72%
    09:00 +2°C° 0.4 mm 9 mps 709 mmHg 68%
    10:00 +2°C° 0.4 mm 9 mps 710 mmHg 64%
    11:00 +2°C° 0.2 mm 9 mps 710 mmHg 61%
    12:00 +2°C° 0.2 mm 9 mps 710 mmHg 59%
    13:00 +2°C° 0.2 mm 9 mps 711 mmHg 56%
    14:00 +2°C° 0.1 mm 8 mps 711 mmHg 56%
    15:00 +2°C° 0.1 mm 8 mps 712 mmHg 56%
    16:00 +2°C° 0.1 mm 7 mps 712 mmHg 55%
    17:00 +2°C° 0 mm 7 mps 713 mmHg 56%
    18:00 +2°C° 0 mm 7 mps 714 mmHg 58%
    19:00 0°C° 0 mm 7 mps 714 mmHg 59%
    20:00 +1°C° 0 mm 6 mps 715 mmHg 61%
    21:00 +1°C° 0 mm 6 mps 715 mmHg 62%
    22:00 -1°C° 0 mm 6 mps 716 mmHg 64%
    23:00 -1°C° 0 mm 6 mps 716 mmHg 67%

    Day after tomorrow, 25 October, Thursday

    Time Temperature Precipitation Wind Pressure Humidity
    00:00 -1°C° 0 mm 6 mps 716 mmHg 70%
    01:00 0°C° 0 mm 5 mps 716 mmHg 74%
    02:00 0°C° 0 mm 5 mps 717 mmHg 75%
    03:00 -1°C° 0 mm 5 mps 717 mmHg 77%
    04:00 -1°C° 0 mm 4 mps 717 mmHg 79%
    05:00 -1°C° 0 mm 4 mps 717 mmHg 79%
    06:00 -1°C° 0 mm 4 mps 717 mmHg 78%
    07:00 -1°C° 0 mm 4 mps 716 mmHg 77%
    08:00 0°C° 0.3 mm 4 mps 716 mmHg 77%
    09:00 +1°C° 0.3 mm 4 mps 715 mmHg 77%
    10:00 +3°C° 0.3 mm 4 mps 715 mmHg 76%
    11:00 +3°C° 0.5 mm 5 mps 714 mmHg 78%
    12:00 +6°C° 0.5 mm 5 mps 714 mmHg 81%
    13:00 +7°C° 0.5 mm 6 mps 713 mmHg 83%
    14:00 +7°C° 0.4 mm 6 mps 713 mmHg 83%
    15:00 +7°C° 0.4 mm 6 mps 713 mmHg 83%
    16:00 +7°C° 0.4 mm 6 mps 713 mmHg 84%
    17:00 +7°C° 0.3 mm 6 mps 713 mmHg 85%
    18:00 +7°C° 0.3 mm 6 mps 714 mmHg 86%
    19:00 +6°C° 0.3 mm 5 mps 714 mmHg 87%
    20:00 +6°C° 0.1 mm 5 mps 714 mmHg 87%
    21:00 +5°C° 0.1 mm 5 mps 715 mmHg 87%
    22:00 +4°C° 0.1 mm 4 mps 715 mmHg 87%
    23:00 +4°C° 0 mm 4 mps 715 mmHg 88%

    26 October, Friday

    Time Temperature Precipitation Wind Pressure Humidity
    00:00 +4°C° 0 mm 4 mps 716 mmHg 88%
    01:00 +3°C° 0 mm 3 mps 716 mmHg 89%
    02:00 +3°C° 0 mm 3 mps 716 mmHg 89%
    03:00 +2°C° 0 mm 3 mps 716 mmHg 90%
    04:00 +3°C° 0 mm 2 mps 716 mmHg 91%
    05:00 +3°C° 0 mm 2 mps 716 mmHg 90%
    06:00 +3°C° 0 mm 2 mps 717 mmHg 90%
    07:00 +3°C° 0 mm 2 mps 717 mmHg 89%
    08:00 +5°C° 0 mm 2 mps 717 mmHg 84%
    09:00 +7°C° 0 mm 3 mps 717 mmHg 78%
    10:00 +9°C° 0 mm 3 mps 717 mmHg 72%
    11:00 +9°C° 0 mm 3 mps 717 mmHg 70%
    12:00 +10°C° 0 mm 3 mps 716 mmHg 69%
    13:00 +11°C° 0 mm 3 mps 716 mmHg 68%
    14:00 +10°C° 0 mm 3 mps 716 mmHg 72%
    15:00 +9°C° 0 mm 2 mps 715 mmHg 76%
    16:00 +9°C° 0 mm 2 mps 715 mmHg 80%
    17:00 +8°C° 0 mm 2 mps 715 mmHg 83%
    18:00 +7°C° 0 mm 2 mps 715 mmHg 85%
    19:00 +7°C° 0 mm 2 mps 714 mmHg 88%
    20:00 +7°C° 0 mm 3 mps 714 mmHg 88%
    21:00 +7°C° 0 mm 3 mps 714 mmHg 87%
    22:00 +7°C° 0 mm 3 mps 714 mmHg 87%
    23:00 +7°C° 0 mm 3 mps 713 mmHg 88%

    27 October, Saturday

    Time Temperature Precipitation Wind Pressure Humidity
    00:00 +7°C° 0 mm 3 mps 713 mmHg 89%
    01:00 +7°C° 0 mm 3 mps 712 mmHg 89%
    02:00 +8°C° 0 mm 3 mps 712 mmHg 90%
    03:00 +8°C° 0 mm 3 mps 712 mmHg 90%
    04:00 +8°C° 0 mm 3 mps 711 mmHg 91%
    05:00 +8°C° 0 mm 3 mps 711 mmHg 91%
    06:00 +8°C° 0 mm 2 mps 711 mmHg 92%
    07:00 +8°C° 0 mm 2 mps 711 mmHg 92%
    08:00 +9°C° 0.1 mm 2 mps 711 mmHg 89%
    09:00 +12°C° 0.1 mm 2 mps 711 mmHg 85%
    10:00 +13°C° 0.1 mm 2 mps 711 mmHg 81%
    11:00 +12°C° 1.3 mm 2 mps 711 mmHg 85%
    12:00 +12°C° 1.3 mm 2 mps 710 mmHg 88%
    13:00 +10°C° 1.3 mm 2 mps 710 mmHg 91%
    14:00 +10°C° 2.4 mm 2 mps 710 mmHg 92%
    15:00 +9°C° 2.4 mm 2 mps 710 mmHg 93%
    16:00 +9°C° 2.4 mm 3 mps 709 mmHg 94%
    17:00 +8°C° 1.7 mm 2 mps 709 mmHg 94%
    18:00 +8°C° 1.7 mm 2 mps 710 mmHg 95%
    19:00 +8°C° 1.7 mm 1 mps 710 mmHg 95%
    20:00 +8°C° 1.7 mm 1 mps 709 mmHg 95%
    21:00 +6°C° 1.7 mm 2 mps 709 mmHg 95%
    22:00 +6°C° 1.7 mm 2 mps 709 mmHg 94%
    23:00 +6°C° 2.3 mm 2 mps 709 mmHg 94%

    28 October, Sunday

    Time Temperature Precipitation Wind Pressure Humidity
    00:00 +6°C° 2.3 mm 2 mps 708 mmHg 94%
    01:00 +6°C° 2.3 mm 2 mps 708 mmHg 93%
    02:00 +5°C° 2.3 mm 2 mps 707 mmHg 93%
    03:00 +5°C° 2.3 mm 2 mps 707 mmHg 93%
    04:00 +5°C° 2.3 mm 2 mps 706 mmHg 93%
    05:00 +5°C° 1.8 mm 2 mps 707 mmHg 93%
    06:00 +5°C° 1.8 mm 2 mps 707 mmHg 93%
    07:00 +5°C° 1.8 mm 2 mps 707 mmHg 93%
    08:00 +5°C° 0.1 mm 2 mps 708 mmHg 90%
    09:00 +6°C° 0.1 mm 2 mps 708 mmHg 87%
    10:00 +7°C° 0.1 mm 2 mps 709 mmHg 85%
    11:00 +7°C° 0 mm 2 mps 710 mmHg 83%
    12:00 +7°C° 0 mm 3 mps 711 mmHg 81%
    13:00 +8°C° 0 mm 3 mps 712 mmHg 79%
    14:00 +7°C° 0.1 mm 3 mps 712 mmHg 81%
    15:00 +5°C° 0.1 mm 3 mps 713 mmHg 83%
    16:00 +5°C° 0.1 mm 2 mps 714 mmHg 86%
    17:00 +4°C° 0 mm 2 mps 715 mmHg 88%
    18:00 +5°C° 0 mm 1 mps 715 mmHg 90%
    19:00 +4°C° 0 mm 1 mps 716 mmHg 92%
    20:00 +4°C° 0 mm 1 mps 716 mmHg 92%
    21:00 +3°C° 0 mm 1 mps 717 mmHg 92%
    22:00 +3°C° 0 mm 1 mps 717 mmHg 92%
    23:00 +3°C° 0 mm 1 mps 717 mmHg 92%

    29 October, Monday

    Time Temperature Precipitation Wind Pressure Humidity
    00:00 +3°C° 0 mm 1 mps 717 mmHg 92%
    01:00 +1°C° 0 mm 0 mps 718 mmHg 91%
    02:00 +2°C° 0 mm 0 mps 718 mmHg 91%
    03:00 +2°C° 0 mm 0 mps 718 mmHg 90%
    04:00 +2°C° 0 mm 0 mps 718 mmHg 90%
    05:00 +3°C° 0 mm 1 mps 718 mmHg 90%
    06:00 +3°C° 0 mm 1 mps 718 mmHg 90%
    07:00 +3°C° 0 mm 1 mps 718 mmHg 89%
    08:00 +4°C° 0 mm 1 mps 718 mmHg 86%
    09:00 +5°C° 0 mm 1 mps 718 mmHg 83%
    10:00 +6°C° 0 mm 1 mps 718 mmHg 79%
    11:00 +5°C° 0 mm 2 mps 717 mmHg 79%
    12:00 +6°C° 0 mm 2 mps 717 mmHg 78%
    13:00 +6°C° 0 mm 2 mps 717 mmHg 78%
    14:00 +5°C° 0 mm 2 mps 716 mmHg 81%
    15:00 +5°C° 0 mm 2 mps 716 mmHg 84%
    16:00 +5°C° 0 mm 2 mps 715 mmHg 87%
    17:00 +5°C° 0.1 mm 2 mps 715 mmHg 89%
    18:00 +4°C° 0.1 mm 2 mps 714 mmHg 90%
    19:00 +4°C° 0.1 mm 2 mps 714 mmHg 92%
    20:00 +4°C° 0.2 mm 2 mps 714 mmHg 92%
    21:00 +4°C° 0.2 mm 2 mps 713 mmHg 93%
    22:00 +4°C° 0.2 mm 2 mps 713 mmHg 94%
    23:00 +4°C° 0.1 mm 2 mps 713 mmHg 94%
    Show more